GEFSMA_prec_meanprecacc_186.txt.gz
Total_Precipitation_Accumulation
1.71 1.79 1.83 1.87 1.77 1.87 2.06 2.28 2.20 2.27 2.34 2.14 1.86 1.73 1.77 1.79 1.85 1.81 1.76 1.97 1.87 1.86 2.31 2.42 2.17 1.90 1.75 1.50 1.26 1.05 0.96 0.89 0.77 0.60 0.50 0.55 0.64 0.71 0.64 0.55 0.51 0.47 0.40
2.10 2.06 1.91 1.91 1.84 1.88 1.96 2.13 2.24 2.55 2.52 2.43 2.02 1.83 1.86 1.94 1.94 2.02 1.95 2.22 2.08 1.83 2.05 2.29 2.39 2.23 2.01 1.82 1.57 1.35 1.18 1.07 0.91 0.66 0.54 0.51 0.57 0.67 0.65 0.65 0.59 0.54 0.45
2.27 2.21 2.09 1.92 1.96 1.99 2.10 2.13 2.25 2.52 2.51 2.39 2.16 2.01 1.93 1.78 1.66 1.72 1.79 1.97 1.90 1.77 1.83 2.02 2.27 2.33 2.23 2.13 1.98 1.81 1.52 1.28 1.09 0.84 0.65 0.53 0.45 0.51 0.53 0.57 0.58 0.56 0.47
2.31 2.31 2.12 1.91 2.07 2.03 2.11 2.31 2.40 2.54 2.69 2.69 2.40 2.14 1.98 1.82 1.62 1.59 1.54 1.55 1.70 1.43 1.62 1.83 2.01 2.14 2.40 2.51 2.54 2.53 2.14 1.65 1.28 1.05 0.85 0.67 0.53 0.47 0.43 0.44 0.48 0.45 0.37
2.24 2.29 2.08 1.99 2.12 2.25 2.24 2.09 2.46 2.70 2.74 2.77 2.35 2.15 1.82 1.65 1.48 1.36 1.39 1.27 1.33 1.34 1.38 1.46 1.61 1.73 2.20 2.73 3.04 3.11 2.88 2.28 1.69 1.36 1.19 1.02 0.83 0.67 0.50 0.42 0.42 0.37 0.31
2.09 2.31 1.99 1.98 2.18 2.33 2.30 2.34 2.64 2.77 2.64 2.74 2.36 2.01 1.63 1.29 1.21 1.12 1.04 1.03 1.00 0.90 0.98 1.24 1.55 1.43 1.82 2.30 2.61 2.84 3.07 2.90 2.30 1.74 1.52 1.38 1.23 1.01 0.75 0.58 0.51 0.48 0.39
2.26 2.54 2.22 2.30 2.27 2.23 2.22 2.40 2.59 2.51 2.35 2.73 2.77 2.12 1.45 1.07 0.96 0.78 0.77 0.76 0.69 0.72 0.94 1.27 1.47 1.55 1.42 1.49 1.68 2.01 2.53 2.91 2.81 2.31 1.96 1.76 1.62 1.31 0.98 0.81 0.65 0.56 0.48
2.35 2.34 2.38 2.26 2.28 2.30 2.12 2.18 2.42 2.31 1.98 2.34 2.58 2.55 1.90 1.43 1.00 0.60 0.61 0.60 0.62 0.76 0.83 0.92 1.21 1.50 1.45 1.58 1.40 1.34 1.85 2.43 2.83 2.80 2.48 2.08 1.75 1.41 1.18 1.04 0.85 0.69 0.56
2.39 2.39 2.22 2.09 2.13 2.05 1.96 1.93 2.11 2.21 2.01 1.97 2.28 2.63 2.16 1.60 1.24 0.80 0.71 0.69 0.82 1.00 0.98 1.02 1.10 1.28 1.38 1.58 1.71 1.63 1.46 1.64 2.25 2.95 2.98 2.43 1.80 1.39 1.21 1.20 1.18 0.96 0.76
2.64 2.42 2.20 2.01 1.87 1.77 1.80 1.59 1.79 1.95 2.01 1.70 1.83 1.92 1.81 1.79 1.73 1.28 0.93 0.83 1.01 1.07 1.09 1.10 1.12 1.27 1.34 1.54 1.72 1.67 1.33 1.19 1.46 2.29 2.80 2.70 2.17 1.60 1.32 1.38 1.69 1.60 1.19
2.71 2.39 2.22 2.07 1.89 1.74 1.64 1.55 1.70 1.64 1.65 1.53 1.62 1.65 1.67 1.66 1.57 1.52 1.27 1.14 1.08 0.85 0.86 0.93 1.11 1.40 1.46 1.54 1.76 1.64 1.49 1.43 1.38 1.53 1.84 2.09 2.18 1.93 1.66 1.69 2.13 2.39 2.14
2.31 2.11 1.98 1.87 1.72 1.69 1.66 1.57 1.56 1.52 1.52 1.57 1.57 1.52 1.60 1.63 1.61 1.67 1.48 1.33 1.21 0.96 0.91 0.93 1.03 1.21 1.31 1.37 1.38 1.45 1.45 1.39 1.28 1.24 1.28 1.39 1.58 1.79 1.93 2.12 2.52 2.88 3.03
1.60 1.55 1.59 1.58 1.50 1.47 1.41 1.44 1.41 1.38 1.44 1.51 1.47 1.46 1.53 1.55 1.59 1.68 1.63 1.36 1.28 1.12 1.14 1.05 0.97 1.10 1.12 1.27 1.35 1.27 1.10 1.08 0.96 0.92 0.96 1.02 1.17 1.36 1.52 1.72 2.13 2.59 2.96
1.34 1.38 1.44 1.42 1.37 1.36 1.30 1.39 1.28 1.22 1.25 1.28 1.25 1.49 1.52 1.36 1.48 1.61 1.65 1.63 1.53 1.42 1.47 1.30 1.09 1.06 1.13 1.20 1.21 1.15 1.02 0.91 0.75 0.68 0.67 0.70 0.77 0.93 1.12 1.31 1.54 1.77 2.04
1.36 1.39 1.34 1.36 1.36 1.41 1.44 1.46 1.34 1.27 1.37 1.32 1.28 1.45 1.47 1.40 1.44 1.51 1.66 1.76 1.85 1.75 1.65 1.51 1.25 1.16 1.18 1.16 1.24 1.13 1.15 1.01 0.73 0.62 0.60 0.60 0.58 0.62 0.73 0.92 1.09 1.25 1.48
1.46 1.49 1.42 1.43 1.44 1.42 1.44 1.43 1.26 1.25 1.39 1.44 1.50 1.62 1.57 1.49 1.52 1.56 1.71 1.89 2.05 2.01 1.75 1.38 1.27 1.27 1.33 1.25 1.30 1.09 1.06 1.12 0.91 0.71 0.63 0.61 0.60 0.62 0.66 0.78 0.91 1.03 1.18
1.43 1.44 1.42 1.42 1.39 1.36 1.38 1.39 1.26 1.35 1.44 1.46 1.45 1.56 1.62 1.64 1.65 1.67 1.81 1.87 2.01 2.20 1.99 1.58 1.48 1.53 1.64 1.61 1.49 1.28 1.11 1.05 0.93 0.85 0.70 0.64 0.62 0.64 0.69 0.74 0.85 0.95 1.01
1.45 1.48 1.49 1.48 1.36 1.37 1.50 1.50 1.43 1.51 1.55 1.52 1.52 1.59 1.52 1.62 1.76 1.74 1.85 1.84 1.88 2.11 2.05 1.85 1.77 1.78 1.85 1.80 1.76 1.54 1.21 1.07 1.01 0.94 0.76 0.67 0.65 0.64 0.65 0.65 0.72 0.85 0.96
1.56 1.60 1.63 1.67 1.63 1.63 1.61 1.64 1.72 1.70 1.60 1.50 1.54 1.53 1.51 1.64 1.68 1.75 1.84 1.77 1.73 1.84 2.00 1.99 1.96 2.05 2.08 1.95 1.85 1.67 1.47 1.39 1.13 1.03 0.92 0.81 0.76 0.73 0.71 0.70 0.72 0.80 0.92
1.61 1.65 1.71 1.86 1.99 2.02 1.99 1.91 1.83 1.75 1.66 1.60 1.56 1.52 1.53 1.56 1.57 1.61 1.67 1.69 1.74 1.86 1.99 2.04 2.10 2.27 2.28 2.31 2.24 1.97 1.82 1.76 1.47 1.14 1.10 1.01 0.94 0.86 0.79 0.72 0.72 0.77 0.86
1.54 1.79 1.95 2.03 2.24 2.36 2.23 2.23 2.12 2.01 1.97 1.81 1.69 1.59 1.50 1.48 1.50 1.51 1.45 1.52 1.67 1.80 1.80 1.85 1.93 2.14 2.25 2.37 2.33 2.12 1.98 1.96 1.80 1.44 1.32 1.22 1.17 1.07 1.01 0.95 0.84 0.77 0.81
1.44 1.61 1.77 1.87 1.89 1.76 1.93 1.95 1.91 1.93 1.94 1.83 1.78 1.72 1.56 1.42 1.37 1.31 1.21 1.23 1.32 1.41 1.56 1.74 1.78 1.96 2.15 2.28 2.41 2.47 2.32 2.15 2.04 1.81 1.71 1.57 1.35 1.28 1.14 1.01 0.94 0.77 0.69
1.38 1.48 1.54 1.61 1.58 1.62 1.62 1.44 1.40 1.39 1.51 1.59 1.65 1.64 1.42 1.28 1.34 1.25 1.24 1.20 1.18 1.25 1.33 1.53 1.68 1.74 1.97 2.16 2.37 2.53 2.53 2.44 2.28 2.13 2.03 1.88 1.57 1.39 1.20 1.08 0.99 0.78 0.65
1.45 1.44 1.48 1.51 1.58 1.54 1.44 1.24 1.24 1.19 1.28 1.37 1.46 1.49 1.45 1.37 1.36 1.40 1.34 1.24 1.15 1.19 1.26 1.26 1.30 1.45 1.70 2.06 2.27 2.31 2.43 2.42 2.31 2.18 2.13 2.08 1.83 1.63 1.43 1.28 1.17 0.90 0.74
1.65 1.58 1.59 1.64 1.62 1.59 1.48 1.26 1.24 1.18 1.25 1.31 1.36 1.37 1.38 1.31 1.35 1.26 1.20 1.19 1.19 1.21 1.16 1.11 1.10 1.17 1.33 1.56 1.92 2.06 2.13 2.08 1.97 1.75 1.65 1.71 1.68 1.63 1.57 1.44 1.27 1.10 0.91
2.01 2.00 1.88 1.79 1.70 1.62 1.56 1.28 1.22 1.17 1.23 1.29 1.37 1.35 1.29 1.17 1.13 1.07 1.06 1.17 1.14 1.11 1.15 1.11 1.05 1.01 1.00 1.15 1.44 1.63 1.69 1.72 1.62 1.58 1.34 1.31 1.32 1.37 1.49 1.38 1.24 1.17 1.09

GEFSMA_prec_meanprecacc_192.txt.gz
Total_Precipitation_Accumulation
1.74 1.82 1.85 1.88 1.79 1.90 2.08 2.31 2.23 2.30 2.37 2.16 1.89 1.76 1.81 1.83 1.88 1.85 1.79 2.00 1.90 1.89 2.33 2.43 2.18 1.91 1.76 1.50 1.26 1.05 0.96 0.89 0.77 0.60 0.51 0.56 0.64 0.71 0.65 0.55 0.52 0.48 0.40
2.13 2.08 1.93 1.94 1.87 1.91 1.98 2.15 2.26 2.58 2.54 2.45 2.04 1.86 1.89 1.98 1.97 2.06 1.97 2.24 2.10 1.85 2.07 2.31 2.40 2.25 2.03 1.83 1.58 1.36 1.19 1.07 0.92 0.66 0.55 0.52 0.57 0.67 0.66 0.65 0.59 0.54 0.45
2.31 2.24 2.11 1.95 1.98 2.02 2.12 2.15 2.28 2.57 2.54 2.42 2.19 2.04 1.96 1.82 1.70 1.76 1.82 1.99 1.91 1.79 1.85 2.04 2.29 2.36 2.25 2.14 1.99 1.82 1.53 1.29 1.10 0.85 0.67 0.54 0.46 0.52 0.54 0.58 0.58 0.56 0.47
2.35 2.34 2.14 1.92 2.08 2.05 2.14 2.33 2.43 2.59 2.73 2.73 2.45 2.18 2.03 1.87 1.67 1.63 1.58 1.59 1.73 1.45 1.64 1.86 2.03 2.15 2.43 2.54 2.56 2.55 2.15 1.66 1.29 1.06 0.87 0.68 0.55 0.49 0.44 0.45 0.49 0.46 0.38
2.28 2.32 2.10 2.01 2.14 2.26 2.26 2.12 2.52 2.76 2.81 2.82 2.39 2.19 1.86 1.71 1.55 1.43 1.45 1.33 1.38 1.38 1.41 1.48 1.63 1.75 2.22 2.76 3.07 3.13 2.90 2.30 1.70 1.37 1.20 1.03 0.84 0.69 0.52 0.43 0.43 0.38 0.32
2.14 2.34 2.01 2.00 2.20 2.36 2.34 2.38 2.70 2.82 2.71 2.82 2.43 2.05 1.67 1.35 1.29 1.24 1.15 1.11 1.08 0.97 1.04 1.28 1.58 1.45 1.85 2.33 2.64 2.87 3.09 2.92 2.32 1.76 1.54 1.40 1.25 1.03 0.76 0.60 0.52 0.49 0.40
2.29 2.57 2.26 2.33 2.29 2.26 2.27 2.45 2.64 2.56 2.41 2.78 2.83 2.16 1.48 1.11 1.05 0.88 0.86 0.87 0.80 0.82 1.05 1.36 1.55 1.62 1.48 1.54 1.73 2.05 2.57 2.95 2.84 2.34 1.99 1.78 1.64 1.32 0.99 0.82 0.66 0.57 0.50
2.37 2.37 2.42 2.30 2.33 2.35 2.18 2.23 2.48 2.36 2.01 2.37 2.64 2.61 1.94 1.47 1.07 0.66 0.69 0.71 0.75 0.94 1.00 1.05 1.34 1.63 1.55 1.68 1.48 1.39 1.90 2.48 2.88 2.84 2.51 2.12 1.78 1.44 1.21 1.07 0.87 0.70 0.58
2.42 2.44 2.27 2.14 2.18 2.12 2.01 1.97 2.16 2.25 2.04 2.01 2.34 2.69 2.20 1.63 1.27 0.83 0.76 0.75 0.94 1.19 1.18 1.16 1.24 1.43 1.51 1.70 1.80 1.70 1.52 1.70 2.30 3.00 3.03 2.47 1.83 1.42 1.24 1.23 1.21 0.99 0.79
2.68 2.47 2.25 2.07 1.95 1.84 1.86 1.64 1.86 2.00 2.05 1.75 1.89 1.98 1.86 1.83 1.77 1.30 0.96 0.88 1.09 1.21 1.22 1.21 1.24 1.38 1.46 1.66 1.81 1.74 1.39 1.25 1.52 2.36 2.87 2.76 2.23 1.64 1.35 1.41 1.72 1.63 1.22
2.77 2.46 2.30 2.15 1.99 1.84 1.71 1.63 1.78 1.71 1.71 1.61 1.69 1.73 1.74 1.72 1.63 1.58 1.30 1.18 1.13 0.90 0.91 0.99 1.19 1.49 1.55 1.62 1.81 1.69 1.54 1.49 1.44 1.58 1.90 2.16 2.23 1.97 1.70 1.73 2.17 2.42 2.16
2.38 2.19 2.08 1.96 1.81 1.81 1.79 1.73 1.69 1.62 1.62 1.67 1.65 1.60 1.68 1.71 1.67 1.73 1.52 1.36 1.23 1.00 0.96 0.99 1.11 1.29 1.38 1.43 1.45 1.53 1.53 1.49 1.36 1.30 1.34 1.44 1.63 1.83 1.97 2.15 2.55 2.92 3.06
1.66 1.62 1.67 1.68 1.61 1.63 1.66 1.71 1.59 1.50 1.54 1.61 1.58 1.57 1.61 1.62 1.66 1.75 1.69 1.40 1.32 1.15 1.19 1.12 1.05 1.20 1.22 1.39 1.51 1.46 1.28 1.23 1.07 1.02 1.03 1.09 1.24 1.42 1.57 1.75 2.16 2.63 3.00
1.41 1.46 1.53 1.50 1.47 1.49 1.46 1.59 1.46 1.37 1.36 1.38 1.36 1.60 1.61 1.44 1.58 1.72 1.76 1.74 1.61 1.48 1.53 1.36 1.15 1.14 1.25 1.37 1.45 1.40 1.22 1.08 0.89 0.79 0.79 0.80 0.85 1.02 1.20 1.38 1.60 1.82 2.08
1.42 1.46 1.41 1.43 1.45 1.50 1.55 1.59 1.46 1.37 1.45 1.39 1.37 1.56 1.58 1.52 1.59 1.65 1.80 1.89 1.97 1.82 1.69 1.56 1.30 1.21 1.26 1.29 1.43 1.33 1.34 1.20 0.91 0.80 0.78 0.76 0.73 0.77 0.86 1.04 1.21 1.34 1.56
1.50 1.54 1.49 1.50 1.50 1.50 1.51 1.51 1.32 1.32 1.47 1.51 1.57 1.72 1.69 1.62 1.65 1.71 1.84 2.01 2.18 2.13 1.82 1.46 1.34 1.34 1.43 1.36 1.50 1.34 1.32 1.36 1.14 0.93 0.82 0.80 0.78 0.78 0.80 0.92 1.04 1.16 1.29
1.48 1.49 1.48 1.49 1.48 1.45 1.49 1.49 1.33 1.42 1.49 1.51 1.52 1.62 1.69 1.73 1.75 1.77 1.91 1.99 2.17 2.37 2.11 1.67 1.57 1.63 1.74 1.72 1.62 1.44 1.26 1.20 1.07 1.01 0.86 0.79 0.77 0.79 0.83 0.87 0.98 1.08 1.13
1.49 1.53 1.55 1.55 1.45 1.46 1.61 1.62 1.52 1.58 1.61 1.58 1.59 1.65 1.57 1.68 1.82 1.81 1.92 1.93 2.02 2.28 2.18 1.94 1.85 1.87 1.93 1.87 1.84 1.66 1.36 1.22 1.15 1.09 0.90 0.81 0.80 0.78 0.80 0.79 0.86 0.99 1.10
1.59 1.64 1.70 1.76 1.73 1.75 1.73 1.76 1.82 1.79 1.67 1.57 1.61 1.60 1.56 1.71 1.75 1.82 1.91 1.85 1.84 1.97 2.10 2.05 2.01 2.11 2.14 2.03 1.95 1.78 1.61 1.53 1.26 1.16 1.07 0.97 0.94 0.91 0.88 0.86 0.87 0.94 1.05
1.65 1.71 1.77 1.94 2.10 2.14 2.11 2.03 1.93 1.85 1.75 1.68 1.64 1.60 1.60 1.64 1.65 1.69 1.77 1.83 1.86 1.95 2.06 2.09 2.15 2.31 2.31 2.36 2.30 2.04 1.92 1.86 1.58 1.26 1.23 1.14 1.07 0.99 0.92 0.84 0.82 0.87 0.95
1.59 1.84 2.00 2.10 2.33 2.45 2.31 2.31 2.20 2.09 2.06 1.89 1.76 1.67 1.56 1.54 1.55 1.58 1.52 1.60 1.73 1.84 1.85 1.90 1.97 2.18 2.28 2.40 2.37 2.18 2.04 2.03 1.87 1.53 1.41 1.32 1.27 1.17 1.11 1.06 0.93 0.84 0.86
1.48 1.65 1.81 1.93 1.95 1.83 2.00 2.01 1.97 1.99 2.00 1.90 1.84 1.78 1.62 1.48 1.42 1.36 1.26 1.27 1.36 1.45 1.60 1.78 1.81 1.99 2.18 2.32 2.47 2.53 2.39 2.23 2.12 1.89 1.78 1.65 1.45 1.38 1.23 1.10 1.04 0.85 0.75
1.42 1.53 1.58 1.64 1.62 1.68 1.70 1.51 1.46 1.44 1.56 1.65 1.72 1.71 1.49 1.34 1.39 1.30 1.30 1.26 1.23 1.29 1.37 1.57 1.71 1.79 2.02 2.22 2.44 2.60 2.60 2.50 2.34 2.20 2.09 1.94 1.63 1.44 1.26 1.14 1.06 0.84 0.71
1.49 1.48 1.52 1.55 1.63 1.61 1.52 1.32 1.31 1.26 1.35 1.45 1.54 1.57 1.54 1.46 1.43 1.47 1.41 1.30 1.20 1.24 1.33 1.32 1.36 1.52 1.78 2.13 2.33 2.36 2.47 2.47 2.36 2.24 2.18 2.13 1.88 1.67 1.47 1.32 1.22 0.95 0.78
1.69 1.62 1.63 1.68 1.67 1.64 1.53 1.31 1.30 1.25 1.33 1.38 1.41 1.43 1.44 1.38 1.42 1.34 1.28 1.26 1.26 1.27 1.24 1.22 1.20 1.25 1.39 1.61 1.96 2.10 2.16 2.12 2.02 1.81 1.70 1.77 1.73 1.68 1.61 1.48 1.31 1.14 0.94
2.05 2.03 1.91 1.81 1.73 1.65 1.59 1.31 1.26 1.23 1.30 1.34 1.40 1.38 1.32 1.21 1.17 1.12 1.11 1.23 1.21 1.19 1.23 1.18 1.10 1.05 1.03 1.18 1.48 1.66 1.72 1.75 1.66 1.62 1.37 1.34 1.36 1.40 1.53 1.42 1.27 1.19 1.11

GEFSMA_prec_meanprecacc_198.txt.gz
Total_Precipitation_Accumulation
1.77 1.84 1.87 1.90 1.80 1.92 2.09 2.32 2.24 2.32 2.38 2.18 1.90 1.78 1.83 1.84 1.91 1.88 1.82 2.03 1.95 1.93 2.38 2.48 2.21 1.93 1.77 1.51 1.28 1.07 0.98 0.91 0.79 0.63 0.54 0.58 0.65 0.72 0.66 0.56 0.52 0.48 0.41
2.17 2.11 1.95 1.96 1.89 1.93 2.00 2.18 2.29 2.59 2.56 2.48 2.06 1.89 1.92 1.99 1.99 2.07 1.99 2.27 2.16 1.90 2.12 2.35 2.43 2.28 2.05 1.85 1.60 1.38 1.20 1.09 0.94 0.69 0.57 0.55 0.59 0.68 0.67 0.66 0.60 0.54 0.45
2.37 2.28 2.14 1.97 2.00 2.04 2.15 2.18 2.32 2.60 2.58 2.47 2.23 2.08 1.99 1.83 1.72 1.78 1.85 2.04 1.96 1.84 1.91 2.10 2.35 2.41 2.28 2.17 2.02 1.84 1.54 1.30 1.11 0.86 0.69 0.56 0.49 0.54 0.56 0.59 0.59 0.57 0.48
2.44 2.42 2.20 1.96 2.10 2.07 2.17 2.37 2.47 2.63 2.78 2.79 2.49 2.21 2.05 1.88 1.70 1.66 1.61 1.62 1.77 1.49 1.69 1.93 2.10 2.21 2.48 2.59 2.59 2.58 2.17 1.67 1.30 1.08 0.88 0.70 0.57 0.51 0.46 0.47 0.51 0.48 0.40
2.33 2.38 2.16 2.05 2.17 2.30 2.30 2.16 2.57 2.80 2.84 2.86 2.42 2.23 1.90 1.75 1.58 1.46 1.48 1.35 1.42 1.41 1.44 1.54 1.72 1.83 2.29 2.83 3.13 3.17 2.93 2.32 1.72 1.39 1.21 1.05 0.87 0.71 0.55 0.46 0.45 0.40 0.33
2.18 2.38 2.07 2.04 2.25 2.41 2.39 2.45 2.77 2.88 2.75 2.86 2.47 2.09 1.72 1.40 1.34 1.28 1.19 1.15 1.12 1.01 1.08 1.33 1.64 1.52 1.92 2.40 2.73 2.96 3.17 2.98 2.35 1.79 1.56 1.42 1.27 1.05 0.78 0.61 0.53 0.49 0.41
2.33 2.61 2.32 2.39 2.35 2.31 2.33 2.50 2.69 2.61 2.46 2.83 2.87 2.19 1.51 1.13 1.07 0.91 0.90 0.93 0.86 0.89 1.11 1.42 1.60 1.67 1.52 1.59 1.80 2.14 2.66 3.03 2.91 2.38 2.02 1.81 1.67 1.35 1.01 0.83 0.67 0.58 0.51
2.42 2.40 2.46 2.35 2.37 2.39 2.21 2.27 2.53 2.41 2.06 2.43 2.67 2.64 1.96 1.48 1.08 0.68 0.72 0.76 0.80 0.99 1.08 1.13 1.41 1.68 1.59 1.71 1.51 1.44 1.96 2.57 2.99 2.94 2.59 2.19 1.84 1.50 1.25 1.10 0.90 0.73 0.60
2.46 2.46 2.30 2.17 2.22 2.17 2.05 2.01 2.20 2.28 2.07 2.06 2.38 2.73 2.22 1.64 1.27 0.84 0.77 0.78 0.97 1.23 1.23 1.22 1.32 1.51 1.59 1.76 1.87 1.77 1.61 1.80 2.42 3.14 3.19 2.59 1.92 1.49 1.30 1.28 1.26 1.04 0.84
2.72 2.50 2.27 2.10 1.99 1.90 1.91 1.70 1.91 2.04 2.09 1.79 1.94 2.03 1.90 1.85 1.78 1.31 0.97 0.90 1.11 1.24 1.26 1.26 1.30 1.45 1.53 1.74 1.91 1.84 1.47 1.34 1.62 2.47 3.01 2.92 2.35 1.73 1.41 1.46 1.77 1.67 1.26
2.81 2.51 2.36 2.21 2.05 1.90 1.79 1.71 1.83 1.77 1.76 1.67 1.76 1.79 1.79 1.76 1.67 1.61 1.32 1.20 1.15 0.92 0.94 1.03 1.22 1.53 1.61 1.69 1.90 1.77 1.62 1.58 1.52 1.66 1.99 2.27 2.37 2.10 1.81 1.81 2.23 2.47 2.21
2.41 2.24 2.15 2.04 1.89 1.87 1.87 1.81 1.74 1.68 1.69 1.74 1.73 1.67 1.74 1.76 1.73 1.78 1.55 1.38 1.25 1.03 0.99 1.02 1.14 1.34 1.43 1.49 1.52 1.61 1.62 1.60 1.48 1.42 1.45 1.54 1.74 1.96 2.11 2.28 2.66 3.02 3.15
1.68 1.67 1.74 1.74 1.68 1.71 1.74 1.79 1.65 1.56 1.62 1.71 1.68 1.65 1.68 1.69 1.74 1.82 1.75 1.44 1.35 1.18 1.22 1.14 1.09 1.24 1.27 1.44 1.56 1.53 1.35 1.32 1.17 1.13 1.15 1.20 1.33 1.54 1.69 1.89 2.30 2.76 3.12
1.44 1.51 1.57 1.55 1.54 1.56 1.54 1.68 1.53 1.45 1.47 1.47 1.44 1.67 1.66 1.49 1.65 1.80 1.84 1.81 1.66 1.52 1.58 1.40 1.19 1.18 1.30 1.42 1.49 1.45 1.26 1.13 0.96 0.88 0.88 0.91 0.97 1.13 1.33 1.53 1.76 1.99 2.24
1.45 1.50 1.45 1.48 1.51 1.56 1.62 1.67 1.52 1.44 1.53 1.45 1.42 1.61 1.62 1.56 1.64 1.72 1.87 1.96 2.04 1.90 1.79 1.65 1.37 1.27 1.31 1.33 1.47 1.38 1.38 1.25 1.00 0.91 0.88 0.86 0.84 0.89 1.02 1.22 1.39 1.52 1.72
1.54 1.57 1.52 1.56 1.56 1.54 1.57 1.58 1.37 1.37 1.53 1.56 1.62 1.77 1.74 1.66 1.70 1.76 1.91 2.09 2.27 2.24 1.93 1.54 1.41 1.41 1.49 1.41 1.54 1.40 1.38 1.44 1.21 1.02 0.91 0.90 0.89 0.91 0.95 1.09 1.24 1.37 1.49
1.52 1.53 1.51 1.54 1.53 1.50 1.54 1.54 1.38 1.47 1.55 1.56 1.59 1.69 1.72 1.75 1.78 1.81 1.96 2.05 2.24 2.45 2.20 1.76 1.64 1.68 1.78 1.76 1.66 1.48 1.30 1.25 1.14 1.09 0.95 0.90 0.89 0.91 0.97 1.03 1.16 1.28 1.36
1.53 1.56 1.57 1.59 1.49 1.50 1.65 1.67 1.57 1.64 1.67 1.62 1.65 1.72 1.61 1.72 1.86 1.85 1.96 1.99 2.08 2.35 2.25 2.01 1.94 1.93 1.98 1.91 1.88 1.69 1.39 1.25 1.19 1.14 0.96 0.87 0.86 0.86 0.90 0.92 1.01 1.16 1.28
1.62 1.66 1.72 1.78 1.76 1.78 1.76 1.78 1.86 1.84 1.73 1.63 1.68 1.66 1.61 1.77 1.80 1.87 1.97 1.92 1.91 2.06 2.20 2.13 2.09 2.16 2.18 2.06 1.97 1.80 1.63 1.56 1.29 1.20 1.12 1.04 1.02 1.01 1.00 0.98 0.99 1.07 1.19
1.68 1.73 1.80 1.96 2.13 2.17 2.14 2.05 1.96 1.88 1.80 1.74 1.70 1.66 1.65 1.70 1.71 1.76 1.84 1.89 1.94 2.04 2.13 2.15 2.20 2.35 2.35 2.39 2.32 2.07 1.96 1.90 1.62 1.29 1.28 1.21 1.14 1.08 1.00 0.94 0.93 0.99 1.08
1.60 1.86 2.02 2.12 2.37 2.49 2.35 2.34 2.23 2.13 2.10 1.93 1.81 1.72 1.61 1.59 1.62 1.65 1.59 1.66 1.78 1.90 1.90 1.95 2.01 2.23 2.32 2.44 2.41 2.23 2.10 2.09 1.93 1.58 1.45 1.36 1.31 1.21 1.16 1.12 1.01 0.96 1.00
1.51 1.68 1.83 1.95 1.99 1.88 2.03 2.04 2.01 2.02 2.05 1.94 1.88 1.83 1.67 1.53 1.47 1.41 1.31 1.31 1.40 1.49 1.65 1.84 1.89 2.07 2.25 2.38 2.53 2.59 2.45 2.29 2.17 1.92 1.81 1.68 1.47 1.41 1.26 1.14 1.11 0.94 0.85
1.45 1.55 1.60 1.66 1.65 1.71 1.74 1.54 1.48 1.46 1.59 1.69 1.77 1.76 1.54 1.38 1.43 1.34 1.35 1.31 1.28 1.34 1.44 1.65 1.81 1.87 2.07 2.27 2.49 2.65 2.65 2.54 2.38 2.23 2.12 1.97 1.65 1.46 1.29 1.17 1.10 0.88 0.76
1.50 1.50 1.54 1.57 1.66 1.65 1.56 1.35 1.35 1.30 1.41 1.52 1.60 1.62 1.57 1.48 1.47 1.51 1.45 1.34 1.24 1.29 1.37 1.37 1.41 1.56 1.81 2.16 2.36 2.39 2.50 2.49 2.39 2.27 2.21 2.16 1.91 1.71 1.50 1.36 1.27 1.00 0.84
1.71 1.65 1.67 1.72 1.72 1.68 1.57 1.36 1.36 1.31 1.41 1.46 1.47 1.48 1.48 1.42 1.47 1.38 1.31 1.30 1.29 1.31 1.29 1.27 1.24 1.29 1.42 1.64 1.99 2.13 2.19 2.15 2.05 1.84 1.74 1.81 1.77 1.72 1.66 1.53 1.36 1.20 1.00
2.10 2.08 1.98 1.88 1.77 1.69 1.65 1.37 1.30 1.26 1.34 1.39 1.46 1.44 1.37 1.24 1.20 1.15 1.14 1.26 1.24 1.23 1.27 1.22 1.14 1.08 1.05 1.21 1.50 1.69 1.76 1.79 1.69 1.65 1.40 1.39 1.42 1.47 1.59 1.47 1.32 1.25 1.18

GEFSMA_prec_meanprecacc_204.txt.gz
Total_Precipitation_Accumulation
1.82 1.89 1.91 1.94 1.82 1.93 2.11 2.35 2.26 2.36 2.41 2.20 1.92 1.79 1.86 1.86 1.94 1.93 1.86 2.06 1.98 1.96 2.41 2.52 2.24 1.96 1.80 1.55 1.31 1.10 1.00 0.93 0.82 0.65 0.55 0.60 0.67 0.73 0.66 0.57 0.53 0.49 0.41
2.22 2.16 1.99 2.01 1.92 1.96 2.04 2.23 2.32 2.65 2.61 2.52 2.10 1.92 1.95 2.02 2.02 2.12 2.04 2.32 2.21 1.93 2.15 2.39 2.48 2.32 2.10 1.90 1.63 1.41 1.23 1.12 0.96 0.70 0.59 0.56 0.62 0.70 0.68 0.67 0.62 0.56 0.46
2.43 2.34 2.20 2.03 2.04 2.09 2.21 2.25 2.39 2.66 2.64 2.52 2.30 2.12 2.02 1.86 1.75 1.81 1.88 2.08 2.02 1.87 1.94 2.14 2.40 2.47 2.34 2.23 2.05 1.86 1.57 1.32 1.12 0.88 0.71 0.58 0.51 0.57 0.58 0.61 0.62 0.59 0.51
2.49 2.48 2.26 2.00 2.15 2.12 2.23 2.46 2.56 2.72 2.86 2.86 2.57 2.28 2.10 1.92 1.73 1.68 1.63 1.64 1.80 1.51 1.72 1.97 2.15 2.28 2.54 2.64 2.64 2.61 2.20 1.70 1.33 1.10 0.90 0.72 0.59 0.54 0.48 0.50 0.54 0.52 0.44
2.38 2.45 2.25 2.14 2.24 2.37 2.38 2.23 2.68 2.93 2.97 2.96 2.49 2.31 1.96 1.80 1.62 1.48 1.50 1.36 1.43 1.43 1.48 1.58 1.77 1.90 2.36 2.91 3.19 3.23 2.99 2.37 1.76 1.42 1.24 1.07 0.88 0.73 0.56 0.48 0.47 0.42 0.35
2.24 2.46 2.16 2.14 2.33 2.50 2.49 2.55 2.88 2.99 2.84 2.94 2.51 2.13 1.78 1.44 1.37 1.31 1.21 1.16 1.12 1.03 1.11 1.37 1.70 1.58 1.98 2.49 2.82 3.04 3.23 3.04 2.40 1.82 1.59 1.44 1.29 1.07 0.80 0.62 0.54 0.50 0.42
2.39 2.69 2.38 2.50 2.45 2.41 2.44 2.59 2.77 2.70 2.54 2.89 2.93 2.24 1.54 1.16 1.10 0.95 0.93 0.95 0.88 0.90 1.13 1.46 1.65 1.73 1.58 1.63 1.87 2.23 2.75 3.10 2.98 2.44 2.07 1.85 1.71 1.38 1.04 0.85 0.69 0.59 0.52
2.48 2.46 2.53 2.44 2.46 2.48 2.30 2.37 2.63 2.50 2.14 2.51 2.76 2.71 2.01 1.52 1.11 0.70 0.77 0.80 0.83 1.01 1.08 1.14 1.43 1.74 1.65 1.80 1.58 1.49 2.05 2.69 3.10 3.02 2.66 2.25 1.92 1.57 1.31 1.15 0.94 0.76 0.62
2.51 2.51 2.35 2.23 2.30 2.25 2.13 2.11 2.30 2.39 2.18 2.15 2.48 2.84 2.31 1.70 1.31 0.86 0.80 0.80 1.00 1.26 1.26 1.25 1.35 1.55 1.62 1.81 1.93 1.83 1.67 1.88 2.53 3.28 3.32 2.73 2.06 1.60 1.40 1.37 1.33 1.10 0.89
2.77 2.55 2.32 2.17 2.05 1.95 1.98 1.77 1.99 2.13 2.21 1.91 2.04 2.12 2.00 1.93 1.85 1.35 1.00 0.93 1.15 1.28 1.31 1.29 1.33 1.47 1.55 1.77 1.96 1.88 1.52 1.39 1.70 2.57 3.13 3.05 2.48 1.86 1.53 1.56 1.86 1.75 1.33
2.86 2.55 2.41 2.27 2.13 1.96 1.86 1.78 1.91 1.85 1.85 1.78 1.86 1.86 1.86 1.84 1.75 1.68 1.38 1.26 1.20 0.97 0.98 1.07 1.27 1.57 1.63 1.73 1.94 1.80 1.66 1.62 1.59 1.72 2.05 2.36 2.49 2.23 1.95 1.95 2.36 2.59 2.31
2.46 2.29 2.20 2.10 1.96 1.94 1.93 1.88 1.82 1.76 1.77 1.82 1.81 1.76 1.81 1.83 1.81 1.88 1.64 1.44 1.31 1.08 1.04 1.08 1.20 1.39 1.48 1.54 1.56 1.65 1.65 1.64 1.52 1.46 1.49 1.60 1.81 2.04 2.21 2.39 2.79 3.16 3.29
1.73 1.71 1.78 1.78 1.73 1.77 1.79 1.85 1.72 1.64 1.70 1.80 1.77 1.76 1.81 1.80 1.83 1.92 1.83 1.51 1.41 1.24 1.28 1.21 1.15 1.30 1.33 1.50 1.62 1.58 1.39 1.35 1.20 1.16 1.19 1.25 1.40 1.60 1.76 1.97 2.42 2.92 3.30
1.49 1.55 1.61 1.59 1.58 1.61 1.57 1.74 1.59 1.51 1.55 1.56 1.50 1.76 1.77 1.58 1.72 1.86 1.92 1.91 1.76 1.61 1.65 1.48 1.25 1.23 1.35 1.48 1.55 1.50 1.30 1.18 1.00 0.91 0.91 0.94 1.01 1.18 1.38 1.60 1.85 2.11 2.41
1.48 1.53 1.48 1.51 1.54 1.59 1.66 1.73 1.58 1.50 1.61 1.54 1.50 1.68 1.69 1.62 1.68 1.76 1.93 2.05 2.13 1.99 1.86 1.71 1.43 1.32 1.37 1.39 1.54 1.43 1.42 1.30 1.05 0.95 0.92 0.90 0.89 0.95 1.08 1.28 1.46 1.60 1.82
1.57 1.59 1.54 1.58 1.57 1.56 1.60 1.63 1.43 1.43 1.61 1.65 1.73 1.88 1.83 1.74 1.77 1.82 1.96 2.15 2.35 2.33 2.00 1.60 1.47 1.48 1.55 1.46 1.60 1.43 1.42 1.49 1.26 1.05 0.95 0.94 0.94 0.95 0.99 1.14 1.29 1.43 1.57
1.55 1.54 1.52 1.55 1.54 1.51 1.57 1.59 1.43 1.53 1.64 1.67 1.68 1.80 1.84 1.87 1.88 1.89 2.03 2.12 2.33 2.54 2.27 1.81 1.70 1.74 1.84 1.82 1.73 1.54 1.36 1.30 1.17 1.12 0.99 0.93 0.92 0.95 1.00 1.06 1.20 1.33 1.42
1.54 1.57 1.59 1.60 1.50 1.51 1.68 1.72 1.62 1.68 1.73 1.71 1.74 1.81 1.70 1.81 1.94 1.93 2.06 2.08 2.17 2.45 2.34 2.09 2.05 2.04 2.05 1.97 1.94 1.74 1.42 1.28 1.22 1.18 1.00 0.92 0.91 0.91 0.95 0.98 1.08 1.23 1.35
1.63 1.68 1.75 1.80 1.78 1.79 1.77 1.81 1.89 1.87 1.77 1.68 1.74 1.72 1.68 1.84 1.86 1.95 2.06 2.02 2.01 2.15 2.29 2.22 2.19 2.27 2.26 2.13 2.03 1.84 1.67 1.59 1.33 1.23 1.16 1.08 1.07 1.06 1.05 1.05 1.07 1.14 1.24
1.70 1.76 1.83 1.99 2.15 2.19 2.15 2.06 1.97 1.91 1.84 1.78 1.74 1.71 1.71 1.75 1.77 1.83 1.92 1.99 2.04 2.13 2.22 2.24 2.29 2.45 2.44 2.46 2.38 2.13 2.01 1.95 1.67 1.34 1.33 1.25 1.18 1.11 1.03 0.97 0.96 1.01 1.10
1.62 1.87 2.05 2.15 2.39 2.52 2.37 2.36 2.27 2.16 2.12 1.95 1.83 1.76 1.66 1.66 1.69 1.71 1.67 1.76 1.87 1.98 1.98 2.03 2.08 2.29 2.38 2.50 2.47 2.28 2.16 2.16 2.00 1.63 1.48 1.39 1.33 1.23 1.17 1.13 1.02 0.98 1.02
1.52 1.70 1.86 1.98 2.02 1.89 2.05 2.06 2.04 2.06 2.08 1.96 1.91 1.86 1.72 1.59 1.54 1.49 1.39 1.41 1.48 1.56 1.71 1.91 1.96 2.13 2.30 2.43 2.58 2.64 2.51 2.35 2.22 1.96 1.84 1.70 1.49 1.42 1.27 1.15 1.12 0.95 0.86
1.47 1.58 1.63 1.70 1.67 1.73 1.75 1.56 1.52 1.49 1.62 1.72 1.80 1.80 1.58 1.44 1.51 1.45 1.47 1.41 1.36 1.40 1.48 1.70 1.87 1.93 2.13 2.33 2.55 2.71 2.70 2.60 2.43 2.27 2.14 1.99 1.67 1.48 1.30 1.20 1.12 0.90 0.78
1.52 1.52 1.57 1.61 1.69 1.68 1.59 1.39 1.39 1.33 1.45 1.56 1.65 1.71 1.67 1.60 1.59 1.62 1.53 1.40 1.29 1.33 1.42 1.41 1.46 1.62 1.87 2.22 2.41 2.44 2.55 2.54 2.41 2.28 2.22 2.18 1.93 1.74 1.54 1.39 1.30 1.03 0.87
1.74 1.68 1.71 1.77 1.78 1.73 1.60 1.40 1.40 1.34 1.45 1.49 1.50 1.53 1.56 1.50 1.56 1.45 1.36 1.33 1.32 1.35 1.33 1.32 1.29 1.33 1.47 1.68 2.02 2.16 2.22 2.18 2.08 1.85 1.75 1.83 1.79 1.76 1.70 1.57 1.39 1.23 1.02
2.14 2.12 2.04 1.94 1.83 1.74 1.69 1.42 1.34 1.29 1.37 1.42 1.48 1.46 1.41 1.29 1.25 1.20 1.18 1.30 1.28 1.27 1.31 1.26 1.18 1.12 1.09 1.24 1.54 1.72 1.79 1.82 1.73 1.67 1.42 1.40 1.44 1.50 1.63 1.51 1.36 1.28 1.21